カタログに戻る

DELTA 1 DEB

運用中SSO
NORAD 12246·DEBRIS·🇺🇸 United States

打ち上げ Mar 5, 1978 から Vandenberg Space Force Base

Loading…

次のパス (今後24時間)

TLE

最新Source: Space-Track

元期: Sep 14, 2026, 22:21 UTC

1 12246U 78026CP  26257.93186407  .00000618  00000-0  40243-3 0  9999
2 12246  99.0664 145.7035 0055529  81.7109 342.4673 14.05475601330455

AllMySatでDELTA 1 DEBをリアルタイム追跡

Download on the App Store